Location: Arcizac
(43.0933°N, 0.0112°E)
Time: 02:14:27
(UTC+00:00)

NOSS 3-1 (C) - Pass Details

Date: 14 December 2019
Orbit: 763 x 1445 km, 63.4° (Epoch: 19 January)

Event Time Altitude Azimuth Distance (km) Brightness Sun altitude
Rises 18:29:03 0° 324° (NW) 3,934 7.0 -21.7°
Reaches altitude 10° 18:31:37 10° 328° (NNW) 3,067 6.3 -22.2°
Maximum altitude 18:39:04 62° 49° (NE) 1,433 4.0 -23.5°
Enters shadow 18:43:03 33° 117° (ESE) 2,102 4.8 -24.2°
